Meath Environmental Platform

Observations

Time Sensor AQI SAQ Temp °C Hum % Pres Pa CO μg/m³ H₂S μg/m³ NO μg/m³ NO₂ μg/m³ O₃ μg/m³ SO₂ μg/m³ CO₂e PPM VOC PPM PM1 μg/m³ PM2.5 μg/m³ PM4 μg/m³ PM10 μg/m³ TPS µm
Tuesday 11 August 2026
03:23 Trim Patrick St 1 11.7 78 38,460 0.34 3.92 4.09 28.81 8.55 0 3.71 7.44 8.18
03:22 Trim Market St 2 13.2 71 54,737 0.32 0 3.51 16.36 38.65 0 2.14 3.98 6.29
03:22 Trim Patrick St 1 11.7 78 38,460 0.34 4.29 4.11 27.97 9.54 0 4.57 8.84 9.73
03:21 Trim Market St 2 13.2 71 54,808 0.34 0 3.49 15.78 39.29 0 2.14 3.51 5.66
03:21 Trim Patrick St 1 11.7 78 38,460 0.34 4.18 4.11 29.24 9.29 0 4.57 8.15 8.96
03:20 Trim Patrick St 1 11.7 78 38,460 0.34 3.82 4.1 27.96 9.17 0 3.71 7.44 8.19
03:19 Trim Market St 2 13.3 71 54,950 0.33 0 3.63 15.19 37.11 0 0.71 3.02 5.66
03:19 Trim Patrick St 1 11.7 78 38,460 0.34 4.05 4.11 29.22 10.01 0 5.43 8.86 9.74
03:18 Trim Patrick St 1 11.7 78 38,460 0.35 4.31 4.1 27.95 11.32 0 2.86 6.75 7.42
03:17 Trim Patrick St 1 11.7 78 38,460 0.34 4.52 4.11 29.21 10.5 0 2 5.34 5.88
03:13 Trim Patrick St 1 11.8 78 38,460 0.34 4.11 4.08 27.83 9.76 0 4.57 8.18 8.99
03:12 Trim Market St 2 13.4 70 55,414 0.32 0 3.61 16.07 40.88 0 2.85 4.02 6.28
03:12 Trim Patrick St 1 11.7 78 38,460 0.32 4.26 4.09 27.48 12.08 0 3.71 6.77 7.44
03:11 Trim Patrick St 1 11.8 78 38,460 0.34 4.19 4.05 27.82 12.53 0 3.71 8.89 9.78
03:09 Trim Patrick St 1 11.8 78 38,460 0.32 4.11 4.08 29.08 12.24 0 3.71 8.19 9.01
03:07 Trim Market St 2 13.4 70 55,620 0.32 0 3.51 15.47 38.33 0 1.43 3.06 5.02
03:06 Trim Market St 2 13.4 70 55,666 0.32 0 3.54 15.44 38.24 0 2.14 5.5 8.79
03:05 Trim Patrick St 1 11.8 78 38,460 0.33 4.29 4.04 27.35 11.02 0 3.71 7.5 8.25
03:05 Trim Market St 2 13.4 70 55,714 0.33 0 3.59 16.59 41.57 0 2.85 4.52 6.9
03:04 Trim Patrick St 1 11.8 78 38,460 0.33 4.78 4.04 29.93 9.89 0 2.86 6.09 6.7